Regional Weather Roundup
Issued by NWS

Home | Current Version | Previous Version | Graphics & Text | Print | Product List | Glossary On
Versions: 1 2 3 4 5 6 7 8 9 10 11 12 13 14 15 16 17 18 19 20 21 22 23 24 25 26 27 28 29 30 31 32 33 34 35 36 37 38 39 40 41 42 43 44 45 46 47 48 49 50
000
ASUS45 KABQ 070401
RWRNM
NEW MEXICO REGIONAL WEATHER ROUNDUP
NATIONAL WEATHER SERVICE ALBUQUERQUE NM
1000 PM MDT MON JUL 06 2015

NOTE: "FAIR" MEANS FEW OR NO CLOUDS BELOW 12,000 FEET AGL WITH NO
       SIGNIFICANT WEATHER OR OBSTRUCTIONS TO VISION.

      THIS PRODUCT IS RELEASED AS TWO VERSIONS.  ONE VERSION NEAR
      THE TOP OF THE HOUR CONTAINING PRELIMINARY DATA FROM ALBUQUERQUE
      AND OTHER STATIONS.  A FINAL VERSION WITH ADDITIONAL DATA IS
      ISSUED ABOUT 10 MINUTES AFTER THE HOUR.

NMZ501-503-504-510>518-070500-
NORTHWEST PLATEAU/NORTHCENTRAL MOUNTAINS

CITY           SKY/WX    TMP DP  RH WIND       PRES   REMARKS
FARMINGTON     PTCLDY    72  54  53 E5        30.12R
SANTA FE       LGT RAIN  64  57  78 S8        30.22R
TAOS           CLOUDY    57  46  67 N10       30.32R

$$
NMZ402-403-502-505>509-070500-
WESTCENTRAL MOUNTAINS/SOUTHWEST MOUNTAINS

CITY           SKY/WX    TMP DP  RH WIND       PRES   REMARKS
GALLUP         CLOUDY    63  53  70 N10       30.23R
SILVER CITY      N/A     73  55  53 NW7       30.15R

$$
NMZ407-409-411-412-070500-
SOUTHERN DESERTS

CITY           SKY/WX    TMP DP  RH WIND       PRES   REMARKS
DEMING         MOCLDY    79  59  50 W10       30.04R
ALAMOGORDO     CLOUDY    86  50  28 NW14      30.00R
T OR C         MOCLDY    81  57  43 NW7       30.06R

$$
NMZ519>523-070500-
CENTRAL VALLEYS/CENTRAL HIGHLANDS

CITY           SKY/WX    TMP DP  RH WIND       PRES   REMARKS
ALBUQUERQUE    CLOUDY    71  58  63 E24G32    30.12R
DOUBLE EAGLE   MOCLDY    70  57  64 N8        30.17R
MORIARTY ARPT    N/A     63  56  79 E7        30.26R
CLINES CORNERS CLOUDY    59  57  93 E14       30.29R
BELEN          MOCLDY    74  55  50 NW6       30.12R
SOCORRO        NOT AVBL

$$
NMZ524>526-539-540-070500-
SOUTHCENTRAL MOUNTAINS

CITY           SKY/WX    TMP DP  RH WIND       PRES   REMARKS
RUIDOSO        NOT AVBL

$$
NMZ527>531-070500-
NORTHEAST HIGHLANDS/NORTHEAST PLAINS

CITY           SKY/WX    TMP DP  RH WIND       PRES   REMARKS
LAS VEGAS      CLOUDY    57  56  96 NE12      30.32R
RATON          CLOUDY    62  55  77 NE9       30.29R
CLAYTON        CLOUDY    64  60  87 N14       30.23R

$$
NMZ532>537-070500-
EASTCENTRAL PLAINS

CITY           SKY/WX    TMP DP  RH WIND       PRES   REMARKS
TUCUMCARI      CLOUDY    66  63  90 NE9       30.15R
CANNON AFB     NOT AVBL
CLOVIS AIRPORT CLOUDY    64  63  94 NE16G22     N/A

$$
NMZ028-029-538-070500-
SOUTHEAST PLAINS

CITY           SKY/WX    TMP DP  RH WIND       PRES   REMARKS
ROSWELL        CLOUDY    74  64  71 N9        30.07R
ARTESIA        CLOUDY    75  66  73 N16       30.08R
CARLSBAD       LGT RAIN  75  70  84 NW17      29.99R
HOBBS          CLOUDY    81  61  50 NW8       30.04R


$$


USA.gov is the U.S. government's official web portal to all federal, state and local government web resources and services.